Retour au catalogue

FENGYUN 1C DEB

ActifSSO
NORAD 30506·DEBRIS·🇨🇳 China

Lancé May 10, 1999 depuis Taiyuan Satellite Launch Center

Loading…

Prochains Passages (prochaines 24 heures)

TLE

FraisSource: Space-Track

Époque: Sep 14, 2026, 19:06 UTC

1 30506U 99025AHU 26257.79596870  .00000163  00000-0  11660-3 0  9999
2 30506  98.7613 260.0702 0069134 287.9342 249.1162 14.08908124  7093

Suivez FENGYUN 1C DEB en temps réel avec AllMySat

Download on the App Store